Wind_Speed
7 8 6 3 3 3 2 2 1 2 1 1 3 2 0 2 1 0 9 9 11 10 7 6 6 4 4 5 6 4 6 8 9 11 8 10 9 8 10 10 11 13 15 14 14 14 15 14 14
7 6 4 4 4 2 1 1 2 1 6 6 3 2 1 1 2 5 11 10 11 9 6 3 5 3 3 5 2 3 6 7 10 8 9 8 9 11 11 12 13 13 13 15 14 13 14 13 14
5 5 3 4 2 2 1 2 4 4 8 2 1 2 2 1 3 11 6 11 11 9 6 4 4 3 3 5 4 4 5 5 9 7 9 9 10 11 12 12 12 11 12 12 14 14 14 12 12
4 2 6 3 2 1 1 4 5 7 2 2 2 1 0 2 5 10 9 10 10 9 7 6 4 4 3 3 3 4 4 5 7 6 8 9 9 10 11 10 10 11 12 12 14 14 12 12 13
1 3 4 3 1 1 2 5 9 4 3 4 2 1 1 5 5 7 10 10 8 8 6 6 5 4 5 2 3 3 3 4 4 5 5 6 7 8 8 9 10 11 11 11 11 11 12 12 14
3 3 3 2 2 1 2 7 6 4 4 3 2 3 2 6 7 8 11 10 9 6 5 5 6 5 5 2 2 2 2 3 3 4 4 5 7 7 8 9 9 10 10 10 10 10 11 12 14
5 3 3 3 4 1 4 10 4 5 4 3 3 2 2 8 9 10 12 11 8 7 5 6 7 6 5 4 2 1 1 2 2 2 2 2 4 6 7 8 9 9 8 8 8 10 10 11 14
4 5 4 2 4 2 5 9 2 6 5 3 7 3 2 4 10 12 14 13 11 8 7 6 7 6 5 4 1 0 0 0 1 2 1 2 3 4 5 5 6 7 8 9 9 10 10 10 12
3 3 3 5 5 2 8 4 3 4 4 7 7 7 5 4 12 14 16 16 14 11 10 8 7 7 5 5 4 2 2 1 1 0 0 0 1 2 3 5 6 6 6 6 7 8 9 9 10
4 2 5 4 4 2 7 6 7 5 5 6 10 13 9 8 13 15 16 16 14 12 10 9 8 7 6 6 5 3 3 3 2 1 1 1 1 1 2 2 4 5 6 6 7 8 8 8 9
2 2 4 3 2 2 6 5 6 5 4 12 11 10 13 12 15 16 14 14 10 10 11 9 8 7 6 6 6 5 4 4 4 4 3 3 3 3 3 3 3 4 5 6 6 6 7 7 8
3 2 3 3 3 3 4 3 4 12 10 6 5 8 10 12 13 14 14 13 13 11 10 10 9 9 8 7 6 6 6 5 5 5 5 5 5 5 6 5 5 6 6 6 6 6 7 8 8
3 2 2 2 2 2 3 7 6 15 13 15 12 9 10 12 12 11 13 13 14 14 12 10 11 10 9 9 8 7 7 6 7 6 6 6 7 7 7 7 7 7 7 8 8 7 8 8 8
2 2 1 1 1 1 2 3 1 3 2 12 15 13 12 13 12 14 15 14 15 12 13 12 12 11 12 10 9 8 9 8 8 8 8 8 8 9 9 9 9 9 10 10 9 10 10 10 10
2 1 3 1 1 1 1 4 7 8 9 7 12 15 15 14 16 16 12 12 12 11 12 14 12 12 12 11 10 10 9 10 9 9 10 10 10 10 11 10 11 11 12 11 11 11 11 12 12
3 3 2 2 0 1 2 5 4 3 5 7 9 14 16 16 15 15 16 15 14 15 15 14 14 14 12 11 10 10 11 11 11 11 12 12 12 12 13 12 12 14 13 13 13 13 13 13 14
6 1 1 4 1 2 1 6 4 2 8 12 12 14 16 16 17 16 16 16 16 15 15 15 15 14 13 12 12 13 13 13 12 13 13 13 14 15 15 14 14 15 15 15 15 15 15 14 15
1 1 2 3 2 1 3 12 12 16 14 19 17 17 17 17 14 12 14 14 15 16 16 17 17 16 15 16 17 16 16 14 13 13 13 14 15 16 17 16 16 17 17 16 16 16 17 16 16
4 2 2 3 1 3 3 7 15 14 8 11 15 18 19 18 14 13 14 15 16 17 17 16 16 15 17 17 18 17 17 15 15 14 14 15 16 17 18 18 18 19 18 18 19 19 18 17 17
2 1 3 4 1 1 4 12 6 5 5 4 6 13 17 18 17 15 16 16 15 13 13 14 13 15 16 16 15 17 17 17 17 16 16 16 17 17 18 18 18 20 20 20 20 20 20 20 17
1 2 2 3 4 1 5 5 3 2 5 5 6 7 9 13 16 17 17 16 16 15 12 11 10 12 14 14 16 17 18 19 19 15 14 13 15 17 19 19 20 20 22 22 21 22 21 21 20
2 3 2 2 3 2 3 2 4 2 5 4 3 3 4 5 7 12 16 16 15 11 13 13 13 13 13 14 16 16 18 20 17 17 17 19 21 21 22 22 22 22 23 24 23 23 24 23 23
3 2 1 1 1 2 1 0 4 2 2 3 2 1 1 2 4 9 13 13 12 13 13 13 15 15 14 14 15 17 19 20 20 20 22 21 23 25 25 25 25 25 25 25 25 25 26 27 25
6 3 4 3 1 1 1 1 4 4 5 3 3 2 3 4 5 7 11 13 12 12 13 15 15 14 15 15 16 18 20 21 23 21 23 23 24 25 27 28 28 28 28 27 26 26 28 29 29
3 4 2 1 1 4 2 1 8 4 5 6 7 4 4 4 5 6 8 9 10 10 12 14 14 14 15 17 18 19 20 23 24 24 25 25 23 23 22 25 29 30 29 29 28 29 30 31 32
4 4 4 4 3 2 2 5 4 5 5 8 6 4 4 5 5 5 6 6 6 8 9 11 12 12 15 18 20 22 24 25 26 26 26 26 25 23 21 22 25 27 29 30 31 33 33 33 34
4 3 1 5 2 1 2 6 7 5 5 8 11 8 7 5 4 5 5 5 6 6 6 7 9 11 14 17 20 23 24 26 27 26 26 26 24 23 21 21 23 25 28 30 31 34 35 35 35
2 3 3 1 4 4 3 5 4 6 10 7 10 14 10 7 7 6 6 6 6 6 7 7 9 9 10 13 15 18 20 21 22 22 22 22 22 22 22 22 22 23 25 27 29 32 33 35 36
3 2 3 1 2 3 2 6 6 12 13 14 19 19 14 11 9 8 9 8 7 6 4 3 3 5 6 8 10 11 13 15 17 18 19 21 22 22 22 21 21 22 23 24 27 29 30 33 33
3 6 6 4 4 1 1 6 1 5 12 20 24 22 16 14 12 11 11 11 8 6 4 3 2 3 5 6 8 10 12 15 17 18 19 21 22 22 21 21 21 21 22 22 24 27 29 30 31
Wind_Direction
358 359 5 33 56 63 71 85 130 105 114 87 117 150 120 104 168 7 155 154 158 169 176 172 122 198 124 110 87 82 74 58 85 61 55 58 59 53 62 57 50 48 48 48 53 53 50 52 48
356 6 26 71 76 49 28 118 130 172 139 121 97 80 86 139 141 153 152 159 159 164 170 161 153 143 131 99 96 48 83 78 86 72 60 60 59 58 59 64 52 52 53 52 55 50 55 50 49
360 16 43 80 95 106 112 172 142 140 143 94 125 60 136 170 167 159 164 164 161 159 165 172 181 131 110 90 64 67 56 62 84 66 65 61 60 56 54 58 56 52 57 57 49 47 56 51 51
359 40 60 71 90 124 151 157 151 141 204 187 151 111 151 161 144 166 163 166 161 159 165 175 164 149 131 99 83 79 61 48 68 68 77 61 62 64 64 60 59 60 48 56 55 50 46 52 43
37 68 65 82 107 112 178 162 162 151 150 171 192 232 236 184 163 171 171 169 164 160 168 173 166 159 129 151 106 102 77 61 56 69 61 65 56 53 63 59 58 52 56 45 51 52 46 40 35
96 84 83 163 184 155 179 175 168 145 158 178 199 173 221 190 178 176 170 172 167 166 175 180 171 180 159 187 128 124 110 82 65 47 50 42 34 30 35 37 42 49 50 44 45 49 40 27 27
113 82 129 139 165 201 197 170 175 174 169 225 201 170 244 205 191 176 176 180 184 184 188 199 191 183 185 194 148 119 81 54 42 40 47 39 29 27 26 30 28 35 38 34 30 27 31 21 21
103 93 116 173 176 208 174 167 210 178 209 203 183 213 223 205 199 188 186 190 196 200 200 201 204 207 203 204 187 191 216 179 52 33 22 5 12 7 18 22 23 17 13 9 8 13 18 17 15
104 75 154 186 167 167 163 172 177 208 198 195 208 232 237 236 204 200 197 200 203 206 207 206 207 211 216 221 233 266 246 253 227 172 99 252 341 358 360 360 352 359 2 1 359 1 5 9 11
70 103 193 181 179 171 178 192 198 186 212 230 238 245 244 238 215 214 210 208 208 211 211 212 211 212 220 229 238 261 284 295 278 293 310 299 300 314 333 334 337 342 344 348 349 351 355 359 357
79 131 173 174 159 173 178 212 197 200 242 241 241 256 236 232 218 218 218 218 217 220 218 221 221 223 229 237 241 256 277 290 293 294 296 301 298 301 306 314 324 327 332 335 335 337 337 339 345
93 116 150 152 171 156 178 198 229 226 246 248 251 249 234 228 227 226 221 217 214 223 223 224 229 230 236 243 250 253 264 280 283 282 288 298 299 300 304 311 314 319 318 319 320 319 322 322 327
80 173 154 164 176 204 218 242 250 261 263 253 251 250 237 233 230 227 224 222 222 224 226 229 234 237 240 246 251 260 266 271 278 285 289 288 291 294 296 299 303 306 308 310 311 309 310 313 315
115 141 107 175 168 222 241 264 269 265 287 240 236 234 234 237 235 228 226 224 227 227 228 232 235 237 241 244 251 256 263 267 274 281 286 289 286 289 291 294 297 297 300 301 305 310 310 310 311
101 81 8 352 249 223 328 258 233 262 272 265 227 226 230 233 231 232 237 236 236 237 233 235 239 238 242 246 249 256 263 268 272 277 280 286 288 288 291 290 291 290 293 296 298 299 301 300 302
57 57 45 333 13 349 53 277 263 260 257 252 237 226 230 232 236 233 231 233 231 232 233 238 240 240 242 248 253 258 263 267 270 272 276 281 286 286 287 288 287 286 289 291 292 293 295 296 295
13 120 347 330 342 332 117 274 257 267 274 268 255 237 233 233 234 230 229 232 232 236 235 236 241 241 244 247 253 259 261 267 273 274 278 281 282 284 286 286 284 283 285 287 289 290 290 291 293
245 24 303 252 318 332 275 272 283 297 268 264 255 238 235 234 233 234 235 236 235 236 235 234 236 238 239 243 249 256 263 269 276 282 283 282 283 283 285 285 285 283 283 285 286 286 288 292 294
127 125 256 259 142 320 251 278 286 305 278 270 242 234 238 240 241 232 232 233 233 232 235 236 238 240 241 246 252 261 270 276 276 280 282 281 283 283 284 285 284 284 284 283 281 285 289 291 296
98 71 296 289 305 2 343 294 276 281 279 289 270 248 248 249 242 231 232 232 234 236 238 237 238 237 243 248 257 263 269 270 273 277 281 284 286 287 286 285 285 283 283 280 280 282 285 288 292
176 183 235 236 321 196 317 293 324 292 299 285 273 263 253 248 241 232 229 231 234 235 235 238 239 235 238 243 251 259 268 277 282 287 288 290 283 283 284 284 282 280 280 280 278 277 278 281 283
294 176 141 302 11 262 1 257 284 294 305 264 276 275 268 244 226 213 217 221 227 228 233 234 230 229 231 236 246 260 272 280 296 292 288 285 282 281 281 282 282 279 277 276 277 275 275 274 276
218 103 80 83 85 3 298 98 261 325 225 226 222 174 88 132 183 194 203 209 215 218 221 220 220 223 229 242 257 269 279 291 295 296 293 289 285 282 279 278 278 277 276 276 274 272 272 271 270
148 93 50 57 45 335 0 122 268 193 194 194 208 172 141 131 148 175 192 201 208 216 219 221 226 228 236 250 264 276 286 292 294 300 297 296 290 284 279 276 275 274 274 276 276 273 269 269 267
83 64 355 352 350 222 18 10 250 232 220 184 175 158 149 145 144 157 182 198 210 220 226 233 240 243 250 261 272 281 288 290 293 298 299 299 296 288 282 276 272 271 272 271 270 268 266 265 267
177 159 167 224 205 272 14 233 245 222 212 205 201 187 162 147 147 152 161 175 200 221 233 244 255 262 268 273 280 283 284 286 290 294 296 295 296 294 285 274 270 269 267 265 264 264 264 264 263
177 185 166 105 30 344 237 281 280 220 268 225 210 202 183 177 178 175 173 178 195 213 231 247 261 269 276 280 282 285 287 288 291 292 290 291 296 296 288 279 272 269 267 266 264 263 264 264 264
162 144 92 18 175 242 262 273 235 203 214 217 217 206 195 199 197 190 188 193 204 220 237 253 266 278 286 291 294 296 297 296 295 293 293 293 295 291 289 286 279 274 270 268 267 268 267 265 264
133 189 63 139 166 184 272 259 211 201 195 193 206 198 198 198 185 182 182 178 179 185 194 220 270 303 319 326 330 328 321 314 306 302 299 296 292 292 289 287 283 280 277 273 271 272 271 269 268
178 188 163 139 198 100 146 275 223 229 209 197 198 197 200 200 193 189 181 177 178 182 181 200 262 313 337 350 357 351 338 324 314 305 299 294 293 291 287 284 284 285 284 280 277 276 274 274 273
Height
1567 1566 1565 1565 1573 1577 1589 1591 1590 1589 1590 1591 1591 1592 1592 1592 1592 1596 1594 1595 1597 1599 1600 1601 1602 1602 1602 1601 1603 1602 1600 1601 1601 1601 1600 1600 1598 1597 1596 1594 1592 1592 1590 1589 1587 1586 1584 1583 1581
1568 1566 1566 1566 1579 1585 1588 1589 1589 1590 1590 1591 1591 1592 1592 1592 1592 1593 1595 1596 1597 1599 1600 1601 1602 1602 1602 1601 1602 1601 1600 1601 1600 1601 1601 1600 1599 1597 1596 1595 1594 1592 1591 1590 1589 1587 1585 1585 1582
1567 1566 1567 1572 1585 1587 1588 1589 1589 1590 1590 1591 1591 1591 1592 1592 1592 1593 1594 1596 1598 1599 1600 1601 1601 1602 1602 1601 1601 1601 1600 1600 1600 1601 1601 1600 1599 1598 1597 1596 1595 1593 1592 1591 1590 1589 1587 1587 1584
1567 1568 1571 1577 1586 1587 1586 1588 1588 1590 1591 1590 1590 1592 1592 1591 1592 1594 1595 1596 1598 1599 1600 1601 1602 1602 1602 1602 1601 1601 1601 1600 1600 1601 1600 1600 1598 1598 1597 1597 1595 1595 1594 1592 1592 1590 1589 1587 1583
1568 1568 1577 1585 1587 1586 1586 1587 1588 1588 1590 1590 1591 1591 1591 1591 1592 1593 1594 1596 1598 1599 1600 1601 1602 1602 1602 1602 1602 1602 1602 1601 1600 1600 1599 1599 1598 1597 1597 1596 1595 1594 1594 1593 1592 1591 1590 1587 1585
1568 1570 1580 1586 1587 1585 1586 1586 1587 1588 1589 1590 1591 1591 1591 1590 1591 1592 1594 1596 1597 1599 1600 1601 1602 1602 1602 1602 1602 1602 1602 1602 1601 1600 1600 1599 1599 1598 1597 1596 1596 1595 1594 1593 1592 1591 1590 1587 1586
1568 1573 1583 1585 1587 1586 1584 1585 1586 1587 1588 1589 1589 1590 1590 1589 1590 1592 1593 1595 1597 1598 1599 1600 1601 1601 1602 1602 1602 1602 1602 1602 1601 1601 1600 1600 1599 1599 1598 1597 1596 1595 1595 1594 1592 1591 1589 1588 1586
1568 1573 1584 1586 1586 1584 1583 1584 1585 1586 1587 1587 1588 1588 1588 1588 1589 1590 1592 1594 1595 1597 1597 1599 1600 1601 1601 1601 1601 1602 1602 1601 1602 1602 1601 1601 1600 1599 1598 1597 1596 1595 1595 1593 1592 1591 1590 1589 1587
1569 1577 1584 1583 1585 1581 1583 1584 1584 1584 1585 1585 1586 1585 1587 1587 1588 1589 1590 1592 1594 1595 1596 1598 1599 1600 1600 1601 1601 1601 1601 1602 1602 1602 1601 1601 1601 1600 1599 1598 1597 1596 1595 1594 1593 1592 1590 1589 1588
1570 1577 1578 1578 1579 1579 1581 1582 1582 1584 1583 1584 1584 1583 1585 1585 1586 1587 1588 1590 1592 1593 1596 1597 1598 1599 1599 1600 1600 1600 1601 1601 1601 1601 1601 1601 1601 1600 1600 1599 1598 1596 1595 1594 1593 1592 1591 1590 1589
1573 1576 1576 1577 1578 1579 1580 1580 1581 1581 1581 1580 1580 1581 1582 1583 1584 1585 1588 1589 1592 1593 1594 1595 1596 1597 1598 1598 1599 1600 1600 1600 1600 1600 1600 1600 1600 1600 1599 1598 1597 1597 1596 1595 1594 1592 1591 1590 1589
1575 1576 1576 1577 1578 1579 1579 1578 1579 1578 1577 1578 1578 1579 1580 1581 1582 1583 1585 1587 1589 1590 1593 1594 1594 1596 1596 1597 1598 1598 1599 1600 1599 1599 1599 1599 1598 1598 1597 1597 1597 1596 1595 1594 1594 1593 1591 1590 1589
1574 1576 1576 1577 1577 1578 1578 1577 1578 1573 1575 1576 1576 1577 1578 1579 1580 1581 1583 1585 1586 1588 1590 1592 1593 1594 1595 1595 1596 1596 1598 1598 1598 1598 1598 1598 1597 1597 1596 1596 1595 1595 1594 1593 1592 1591 1591 1590 1588
1575 1575 1576 1576 1577 1578 1578 1577 1578 1571 1571 1571 1573 1575 1576 1577 1578 1580 1580 1582 1583 1586 1587 1589 1591 1592 1593 1594 1595 1595 1596 1596 1597 1597 1596 1596 1596 1596 1595 1594 1594 1593 1592 1591 1591 1591 1590 1589 1588
1574 1576 1576 1576 1577 1577 1577 1577 1573 1570 1570 1569 1570 1572 1573 1574 1575 1576 1579 1580 1582 1584 1586 1587 1588 1590 1591 1592 1593 1593 1594 1594 1594 1595 1594 1594 1594 1594 1594 1593 1592 1591 1590 1590 1589 1588 1587 1586 1585
1577 1579 1581 1577 1577 1577 1578 1575 1567 1568 1567 1567 1568 1568 1569 1570 1571 1573 1575 1577 1578 1580 1582 1584 1585 1587 1588 1590 1591 1591 1591 1591 1592 1592 1592 1591 1591 1591 1591 1590 1590 1588 1588 1587 1586 1586 1585 1584 1583
1582 1583 1584 1580 1577 1577 1578 1573 1566 1566 1566 1564 1565 1565 1566 1567 1568 1569 1571 1573 1575 1577 1579 1581 1582 1584 1585 1587 1587 1588 1588 1588 1588 1588 1588 1588 1588 1588 1587 1587 1586 1585 1584 1584 1583 1582 1582 1581 1579
1585 1584 1585 1585 1579 1577 1577 1571 1563 1561 1560 1558 1559 1561 1561 1562 1563 1567 1568 1570 1572 1574 1576 1577 1578 1580 1582 1583 1583 1584 1584 1585 1585 1585 1585 1585 1585 1584 1584 1583 1582 1581 1581 1581 1579 1578 1577 1577 1576
1582 1585 1586 1581 1579 1579 1577 1573 1561 1557 1556 1554 1554 1556 1557 1559 1561 1563 1565 1566 1568 1569 1571 1573 1575 1577 1577 1578 1579 1580 1580 1582 1581 1581 1582 1581 1581 1580 1579 1579 1578 1578 1577 1577 1576 1575 1575 1574 1573
1581 1584 1584 1581 1578 1580 1577 1568 1559 1556 1554 1552 1552 1552 1553 1555 1556 1559 1561 1563 1564 1566 1568 1569 1571 1572 1573 1574 1576 1576 1576 1576 1577 1577 1577 1577 1576 1576 1575 1575 1575 1574 1573 1572 1572 1571 1570 1570 1569
1581 1583 1584 1585 1580 1580 1579 1565 1559 1554 1553 1551 1550 1550 1550 1550 1551 1555 1557 1559 1561 1562 1564 1566 1568 1569 1569 1571 1571 1571 1571 1571 1571 1572 1573 1573 1572 1572 1571 1570 1569 1569 1568 1567 1567 1566 1566 1565 1564
1581 1580 1581 1583 1583 1579 1580 1571 1561 1556 1553 1550 1548 1548 1547 1547 1548 1550 1552 1555 1557 1559 1561 1563 1564 1565 1567 1567 1567 1567 1568 1567 1568 1568 1569 1568 1568 1567 1566 1565 1565 1564 1562 1561 1561 1561 1561 1561 1560
1579 1579 1582 1584 1586 1584 1579 1576 1555 1557 1551 1548 1548 1547 1546 1546 1546 1548 1550 1552 1554 1556 1558 1560 1561 1562 1563 1564 1565 1565 1564 1563 1564 1563 1563 1562 1562 1561 1560 1559 1558 1557 1555 1555 1555 1555 1555 1554 1554
1579 1581 1585 1588 1588 1582 1581 1579 1558 1553 1546 1546 1545 1545 1545 1544 1545 1546 1547 1549 1551 1554 1556 1557 1558 1560 1561 1561 1561 1561 1560 1560 1559 1558 1557 1556 1555 1554 1553 1552 1551 1551 1549 1550 1550 1549 1548 1546 1545
1580 1584 1590 1583 1585 1580 1585 1584 1551 1543 1542 1541 1542 1543 1543 1544 1544 1545 1546 1547 1550 1552 1553 1554 1555 1557 1557 1557 1557 1557 1556 1555 1553 1553 1551 1550 1549 1547 1546 1545 1543 1542 1543 1542 1542 1540 1539 1538 1538
1582 1582 1587 1578 1586 1580 1585 1576 1542 1540 1539 1540 1541 1542 1542 1543 1543 1544 1545 1546 1548 1549 1550 1552 1553 1554 1554 1554 1553 1552 1551 1549 1548 1546 1545 1543 1541 1541 1540 1538 1536 1535 1534 1532 1532 1530 1530 1531 1529
1580 1584 1582 1592 1602 1589 1575 1558 1539 1538 1539 1538 1538 1540 1541 1541 1542 1543 1544 1545 1546 1547 1548 1549 1550 1551 1551 1550 1548 1547 1545 1544 1542 1541 1539 1537 1535 1533 1532 1531 1529 1527 1525 1524 1523 1521 1521 1522 1521
1575 1578 1584 1588 1586 1580 1572 1568 1543 1538 1535 1535 1536 1536 1538 1539 1540 1541 1542 1542 1543 1544 1545 1546 1547 1547 1546 1545 1544 1542 1541 1538 1536 1534 1532 1531 1529 1527 1525 1524 1522 1520 1519 1517 1516 1515 1514 1513 1512
1578 1579 1584 1585 1585 1574 1570 1548 1524 1521 1522 1527 1530 1532 1534 1536 1537 1538 1539 1540 1541 1542 1543 1543 1544 1544 1543 1542 1540 1539 1536 1534 1532 1530 1528 1526 1524 1523 1521 1518 1515 1513 1511 1510 1509 1507 1507 1505 1506
1566 1567 1570 1575 1577 1592 1588 1550 1519 1520 1520 1522 1524 1528 1532 1534 1535 1536 1537 1538 1540 1540 1540 1540 1540 1541 1540 1539 1538 1536 1534 1531 1528 1525 1522 1520 1518 1516 1514 1511 1509 1507 1505 1504 1502 1501 1500 1498 1496